This is the latest recevied weather packets stored in our database for station/object KA9CBS. If no packets are shown the sender has not sent any weather packets the latest 10 day(s).
| Time | Temp. | Humidity | Pressure | Rain* | Wind** | Luminosity | Snow |
|---|---|---|---|---|---|---|---|
| 1777379510 | 13.89° C | 98% | 1017 hPa | 0 mm | - | 52 W/m² | - |
| 1777379205 | 13.89° C | 98% | 1017.1 hPa | 0 mm | - | 42 W/m² | - |
| 1777378901 | 13.89° C | 98% | 1017.1 hPa | 0 mm | - | 35 W/m² | - |
| 1777378597 | 13.89° C | 98% | 1017.1 hPa | 0 mm | - | 33 W/m² | - |
| 1777378293 | 13.33° C | 98% | 1016.8 hPa | 0 mm | - | 32 W/m² | - |
| 1777377991 | 13.33° C | 98% | 1016.7 hPa | 0 mm | - | 30 W/m² | - |
| 1777377686 | 13.33° C | 98% | 1016.5 hPa | 0 mm | - | 29 W/m² | - |
| 1777377381 | 13.33° C | 97% | 1016.5 hPa | 0 mm | - | 26 W/m² | - |
| 1777377078 | 13.33° C | 97% | 1016 hPa | 0 mm | - | 23 W/m² | - |
| 1777376775 | 13.33° C | 97% | 1015.7 hPa | 0 mm | - | 22 W/m² | - |
| 1777376472 | 13.33° C | 97% | 1016 hPa | 0 mm | - | 19 W/m² | - |
| 1777376168 | 13.33° C | 97% | 1016 hPa | 0 mm | - | 16 W/m² | - |
| 1777375863 | 13.33° C | 97% | 1015.4 hPa | 0 mm | - | 14 W/m² | - |
| 1777375557 | 13.33° C | 97% | 1015.4 hPa | 0 mm | - | 12 W/m² | - |
| 1777375253 | 13.33° C | 96% | 1015.6 hPa | 0 mm | - | 7 W/m² | - |
| 1777374950 | 13.33° C | 96% | 1015.6 hPa | 0 mm | - | 5 W/m² | - |
| 1777374646 | 13.89° C | 96% | 1015.2 hPa | 0 mm | - | 2 W/m² | - |
| 1777374342 | 13.89° C | 96% | 1015.2 hPa | 0 mm | - | 0 W/m² | - |
| 1777374039 | 13.89° C | 97% | 1014.9 hPa | 0 mm | - | 0 W/m² | - |
| 1777373734 | 13.89° C | 96% | 1014.7 hPa | 0 mm | - | 0 W/m² | - |
| 1777373433 | 13.89° C | 96% | 1014.6 hPa | 0 mm | - | 0 W/m² | - |
| 1777373127 | 13.89° C | 96% | 1014.6 hPa | 0 mm | - | 0 W/m² | - |
| 1777372823 | 13.89° C | 96% | 1014.4 hPa | 0 mm | - | 0 W/m² | - |
| 1777372517 | 14.44° C | 96% | 1014.3 hPa | 0 mm | - | 0 W/m² | - |
| 1777372215 | 14.44° C | 96% | 1013.8 hPa | 0 mm | - | 0 W/m² | - |
* Rain latest hour (hover to see other rain measurements)
** Current wind speed in m/s (hover to see current wind gust speed)